This demonstration page uses our WeatherBlox Daily Observations layout. Learn more.

Left ArrowRight Arrow

44.8408, -93.29828

Hourly Observations for August 10, 2022

Temp ( °F °C ) Dew Point ( °F °C ) Humidity (%) Winds ( mph kmh ) Pressure ( in mb ) Visibility ( mi km ) Precip ( " mm )
12:53 am 00:53 Clear 71 21.7 62 16.7 73 73 SW 5 7 30.09 1019 10 16 0.00 0.00
1:53 am 01:53 Clear 70 21.1 62 16.7 76 76 SSW 5 7 30.10 1019 10 16 0.00 0.00
2:53 am 02:53 Clear 69 20.6 62 16.7 78 78 Calm 30.11 1020 10 16 0.00 0.00
6:53 am 06:53 Mostly Sunny 67 19.4 60 15.6 79 79 SW 6 9 30.14 1021 10 16 0.00 0.00
7:53 am 07:53 Sunny 70 21.1 62 16.7 76 76 WNW 3 6 30.16 1022 10 16 0.00 0.00
8:53 am 08:53 Mostly Sunny 74 23.3 63 17.2 69 69 WNW 5 7 30.16 1022 10 16 0.00 0.00
9:53 am 09:53 Mostly Sunny 77 25 64 17.8 64 64 Calm 30.16 1021 10 16 0.00 0.00
10:53 am 10:53 Sunny 80 26.7 64 17.8 58 58 NNW 7 11 30.16 1021 10 16 0.00 0.00
11:53 am 11:53 Mostly Sunny 81 27.2 62 16.7 53 53 N 10 17 30.17 1022 10 16 0.00 0.00
12:53 pm 12:53 Mostly Sunny 83 28.3 61 16.1 48 48 NE 6 9 30.16 1021 10 16 0.00 0.00
1:53 pm 13:53 Mostly Sunny 85 29.4 62 16.7 46 46 NE 6 9 30.14 1021 10 16 0.00 0.00
2:53 pm 14:53 Partly Cloudy 86 30 61 16.1 43 43 N 13 20 30.14 1021 10 16 0.00 0.00
3:53 pm 15:53 Partly Cloudy 85 29.4 60 15.6 43 43 WNW 5 7 30.13 1020 10 16 0.00 0.00
4:53 pm 16:53 Partly Cloudy 86 30 58 14.4 39 39 NW 8 13 30.13 1020 10 16 0.00 0.00
5:53 pm 17:53 Partly Cloudy 87 30.6 53 11.7 31 31 N 9 15 30.12 1020 10 16 0.00 0.00
6:53 pm 18:53 Mostly Sunny 84 28.9 49 9.4 30 30 NNW 10 17 30.12 1020 10 16 0.00 0.00
7:53 pm 19:53 Mostly Sunny 81 27.2 55 12.8 41 41 NNE 10 17 30.13 1020 10 16 0.00 0.00
8:53 pm 20:53 Mostly Clear 77 25 55 12.8 47 47 N 8 13 30.14 1021 10 16 0.00 0.00
9:53 pm 21:53 Mostly Clear 75 23.9 55 12.8 50 50 N 8 13 30.16 1021 10 16 0.00 0.00
10:53 pm 22:53 Clear 73 22.8 55 12.8 53 53 N 6 9 30.17 1022 10 16 0.00 0.00
11:53 pm 23:53 Clear 71 21.7 55 12.8 57 57 NNE 7 11 30.19 1022 10 16 0.00 0.00

Powered by AerisWeather